Location: ??
(35.0885°N, 128.3403°E)
Time: 04:27:57
(UTC+00:00)

Daily predictions for brighter satellites

Satellite Brightness Start Highest point End
(mag) Time Altitude Azimuth Time Altitude Azimuth Time Altitude Azimuth
Sakura Rocket 4.2 10:58:03 10° WSW 11:02:51 44° S 11:09:23 10° ESE
USA 267 3.5 10:56:46 10° SE 11:03:18 77° SW 11:09:54 10° NW
DMSP B5D2-2 4.4 10:58:30 10° NNE 11:03:32 44° E 11:08:31 10° S
Cosmos 1634 Rocket 4.2 10:57:19 10° N 11:03:34 58° E 11:09:46 10° SSE
Okean 3 3.5 11:01:22 10° S 11:05:38 69° E 11:09:55 10° NNE
CZ-2C R/B 3.5 11:00:19 10° S 11:05:52 80° WSW 11:11:40 10° NNW
Cosmos 1300 Rocket 4.4 11:02:04 10° NNE 11:06:03 32° ENE 11:09:59 10° SE
STARLINK-1126 3.7 11:01:59 10° NW 11:06:08 77° NE 11:10:15 10° SE
Resurs 01 Rocket 3.3 11:03:38 10° ESE 11:06:37 18° ENE 11:09:35 10° NNE
NOSS 2-2 (C) 3.0 11:03:22 10° SSW 11:06:57 72° ESE 11:10:34 10° NE
USA 186 1.3 11:04:27 10° SSE 11:07:04 78° ENE 11:09:55 10° N
Cosmos 304 Rocket 3.8 11:05:19 10° S 11:10:00 59° ESE 11:14:43 10° NNE
STARLINK-1082 3.6 11:07:17 10° NW 11:11:27 86° NE 11:15:35 10° SE
ISS -3.4 11:08:53 10° NW 11:12:12 60° SW 11:15:31 10° SE
ATLAS 2AS CENTAUR R/B 4.0 11:06:38 10° SSE 11:12:20 22° ESE 11:18:07 10° ENE
ASTEX 1 3.5 11:10:00 10° S 11:14:53 83° W 11:19:51 10° N
Meteor 1-13 Rocket 4.3 11:10:39 10° S 11:16:10 63° E 11:21:51 10° NNE
STARLINK-1100 3.6 11:12:14 10° NW 11:16:23 85° SW 11:20:31 10° SE
MONITOR-E 3.6 11:13:54 10° SSE 11:16:24 64° ENE 11:18:56 10° N
IRS-1A Rocket 4.4 11:12:03 10° SSE 11:17:49 84° WSW 11:23:30 10° NNW
Resurs 1-3 4.4 11:15:13 10° SE 11:19:13 35° ENE 11:23:13 10° N
BREEZE-M DEB 1.5 11:17:25 10° SW 11:19:39 81° SE 11:22:05 10° NE
STARLINK-1083 3.7 11:17:13 10° NW 11:21:21 77° SW 11:25:19 11° SE
Iridium 51 4.4 11:18:45 10° S 11:22:30 72° W 11:26:02 10° N
ARGOS 3.4 11:17:11 10° S 11:22:32 73° WSW 11:27:57 10° NNW
Cosmos 1378 Rocket 4.5 11:19:47 10° SSE 11:23:34 29° E 11:27:20 10° NNE
Cosmos 1674 Rocket 4.1 11:19:34 10° SSE 11:23:38 39° E 11:27:45 10° NNE
SPOT 3 Rocket 3.9 11:20:28 10° SSE 11:25:24 50° ENE 11:30:23 10° N
STARLINK-1125 3.8 11:22:13 10° NW 11:26:20 68° SW 11:30:07 12° SE
CZ-2C R/B 2.7 11:21:08 10° NNE 11:26:46 73° ESE 11:32:18 10° S
H-2A ROCKET BODY 3.8 11:23:10 10° S 11:26:55 22° SE 11:36:17 10° E
Cosmos 1975 4.1 11:24:05 10° NNW 11:27:53 41° W 11:31:37 10° SSW
Aureole 2 Rocket 3.1 11:25:33 10° SSW 11:28:34 49° WNW 11:31:28 10° N
STARLINK-1356 4.5 11:27:43 10° SSE 11:29:42 16° SE 11:31:40 10° E
STARLINK-1345 4.5 11:28:02 10° SSE 11:30:01 16° SE 11:32:00 10° E
STARLINK-1355 4.5 11:28:21 10° SSE 11:30:21 16° SE 11:32:22 10° E
Cosmos 1943 Rocket 2.6 11:25:18 10° S 11:30:25 41° ESE 11:35:37 10° NE
STARLINK-1321 4.5 11:28:40 10° SSE 11:30:41 16° SE 11:32:42 10° E
STARLINK-1358 4.4 11:29:02 10° SSE 11:31:04 16° SE 11:33:06 10° E
STARLINK-1109 3.9 11:27:12 10° NW 11:31:17 61° SW 11:34:53 13° SSE
STARLINK-1332 4.4 11:29:18 10° SSE 11:31:22 16° SE 11:33:25 10° E
STARLINK-1348 4.4 11:29:36 10° S 11:31:40 17° SE 11:33:44 10° E
H-2A R/B 3.2 11:27:08 10° S 11:31:57 44° W 11:36:56 10° NNW
STARLINK-1330 4.4 11:29:57 10° S 11:32:02 17° SE 11:34:07 10° E
STARLINK-1363 4.4 11:30:14 10° S 11:32:19 17° SE 11:34:25 10° E
STARLINK-1337 4.4 11:30:36 10° S 11:32:43 17° SE 11:34:50 10° E
STARLINK-1342 4.4 11:30:55 10° S 11:33:03 17° SE 11:35:11 10° E
STARLINK-1364 4.4 11:31:15 10° S 11:33:23 17° SE 11:35:31 10° E
STARLINK-1376 4.4 11:31:33 10° S 11:33:43 17° SE 11:35:52 10° E
STARLINK-1360 4.3 11:31:53 10° S 11:34:03 18° SE 11:36:14 10° E
STARLINK-1361 4.3 11:32:13 10° S 11:34:24 18° SE 11:36:34 10° E
STARLINK-1367 4.3 11:32:29 10° S 11:34:41 18° SE 11:36:53 10° E
STARLINK-1366 4.3 11:32:50 10° S 11:35:03 18° SE 11:37:16 10° E
STARLINK-1091 4.1 11:32:12 10° NW 11:36:15 54° SW 11:39:40 14° SSE
SJ-6B 3.3 11:35:19 10° S 11:38:58 55° W 11:42:38 10° NNW
STARLINK-52 2.9 11:36:24 10° SW 11:39:36 85° NW 11:42:49 10° NE
STARLINK-1072 4.3 11:37:15 10° WNW 11:41:14 48° SW 11:44:29 15° SSE
STARLINK-1096 4.5 11:42:15 10° WNW 11:46:10 42° SW 11:49:14 15° SSE
Cosmos 1833 Rocket 3.9 11:42:05 10° NW 11:47:16 39° WSW 11:52:26 10° S
STARLINK-1144 4.5 11:49:34 10° NNW 11:53:29 40° NE 11:56:02 19° E
STARLINK-1352 4.4 11:52:00 10° S 11:55:15 26° SE 11:58:30 10° ENE
